Simultaneous Nadir Overpasses (SNOs) Predictions

Prediction of SNOs between AQUA and METOP-C Satellite Orbit:

Table of predicted SNOs for the next 14.0 days since TLE Epoch: 7/26/2019
Index Date (AQUA) Time (AQUA) Lat,Lon (AQUA) SZA (AQUA ) Date (METOP-C) Time (METOP-C) Lat,Lon (METOP-C) SZA (METOP-C ) Distance(km) Time Diff (sec)
1 07/27/2019 11:17:03 -73.01,-173.37 126.21 07/27/2019 11:15:58 -73.00,-176.42 126.07 99.07 65
2 07/27/2019 12:06:45 73.78, -7.35 54.64 07/27/2019 12:06:23 73.78, -7.34 54.64 0.63 22
3 07/27/2019 12:56:12 -73.84, 160.17 125.30 07/27/2019 12:57:03 -73.83, 160.11 125.31 2.14 51
4 07/30/2019 06:51:24 -73.32,-107.57 125.21 07/30/2019 06:50:15 -73.28,-109.40 125.16 58.43 69
5 07/30/2019 07:41:00 73.78, 59.09 55.29 07/30/2019 07:40:46 73.76, 59.02 55.28 3.28 14
6 07/30/2019 08:30:27 -73.84,-133.40 124.64 07/30/2019 08:31:25 -73.86,-133.41 124.63 2.17 58
7 08/02/2019 02:25:45 -73.64, -41.81 124.18 08/02/2019 02:24:32 -73.56, -42.35 124.22 19.13 73
8 08/02/2019 03:15:15 73.79, 125.51 55.99 08/02/2019 03:15:08 73.79, 125.50 56.00 0.36 7
9 08/02/2019 04:04:42 -73.84, -66.97 123.94 08/02/2019 04:05:48 -73.84, -67.04 123.95 2.14 66
10 08/04/2019 22:00:02 -73.75, 24.38 123.32 08/04/2019 21:58:51 -73.75, 24.48 123.32 3.08 71
11 08/04/2019 22:49:30 73.80,-168.07 56.74 08/04/2019 22:49:30 73.82,-168.02 56.76 2.99 0
12 08/04/2019 23:38:57 -73.85, -0.56 123.19 08/04/2019 23:40:10 -73.87, -0.56 123.19 2.11 73
13 08/07/2019 17:34:15 -73.72, 90.90 122.59 08/07/2019 17:33:13 -73.73, 90.84 122.57 2.20 62
14 08/07/2019 18:23:44 73.81,-101.66 57.52 08/07/2019 18:23:52 73.80,-101.66 57.51 1.23 8




NCC Satellite Simultaneous Nadir Overpasses (SNOs) Prediction Service
